Other Public Products
Issued by NWS Grand Forks, ND

Home | Current Version | Previous Version | Graphics & Text | Print | Product List | Glossary On
Versions: 1 2 3 4 5 6 7 8 9 10 11 12 13 14 15 16 17 18 19 20 21 22 23 24 25 26 27 28 29 30 31 32 33 34 35 36 37 38 39 40 41 42 43 44 45 46 47 48 49 50
000
FPUS83 KFGF 241710
OPUFGF
PRAIRIE TO PINES WEATHER ROUNDUP
NATIONAL WEATHER SERVICE EASTERN NORTH DAKOTA/GRAND FORKS ND
1100 AM CST WED DEC 24 2014

 **SATELLITE DATA USED TO AUGMENT SKY COVER AT AUTOMATED STATIONS**
 *****  WEATHER ACROSS EASTERN NORTH DAKOTA  *****

CITY           SKY/WX    TMP DP  RH WIND       PRES   REMARKS
GRAND FORKS    CLOUDY    26  23  88 SW12      29.75F WCI  16
GRAND FORKS AF CLOUDY    26  26 100 S9        29.74F WCI  16
GRAND CITY NWS   N/A     27 N/A N/A SW12        N/A  WCI  16
BUXTON         NOT AVBL
DEVILS LAKE    CLOUDY    27  25  93 S10       29.66F WCI  17
FARGO          CLOUDY    28  25  88 W8        29.78F WCI  20
WAHPETON ARPT  CLOUDY    28  25  86 SW9       29.79F WCI  20
$$

 *****  WEATHER ACROSS CENTRAL AND WESTERN NORTH DAKOTA  *****

CITY           SKY/WX    TMP DP  RH WIND       PRES   REMARKS
JAMESTOWN      CLOUDY    26  25  96 SW12      29.71F FOG     WCI  16
BISMARCK       CLOUDY    25  20  81 SE8       29.67F WCI  16
MINOT          CLOUDY    28  22  78 S10       29.56F WCI  19
MINOT AFB      MIX PCPN  28  28  99 S13       29.55F WCI  18
GARRISON         N/A     27  22  81 S10       29.59F WCI  17
WILLISTON      CLOUDY    28  24  85 S8        29.55F WCI  20
DICKINSON      CLOUDY    32  23  69 SW8       29.57F WCI  25
HETTINGER      CLOUDY    30  20  66 SW7       29.64F WCI  23
$$

 *****  OTHER OBSERVATIONS NORTHEAST NORTH DAKOTA  *****

CITY           SKY/WX    TMP DP  RH WIND       PRES   REMARKS
WALHALLA         N/A     25  25 100 S10       29.69F WCI  15
LANGDON        FOG       25  25 100 S20G25    29.64F VSB 3/4 WCI  11
CAVALIER       CLOUDY    25  23  93 S14       29.71F WCI  13
GRAFTON        NOT AVBL
CANDO          CLOUDY    27  27 100 S13       29.65F FOG     WCI  16
FORT TOTTEN      N/A     27  26  97 S8        29.95S WCI  19
ROLLA          CLOUDY    25  25 100 S16G23    29.58F FOG     WCI  12
RUGBY          FAIR      27  27 100 S12       29.60F FOG     WCI  16
 ***** THE ABOVE OBSERVATIONS ARE NON NWS ARE NOT QUALITY
        CONTROLLED AND MAY MIS-REPORT RAIN FOR SNOW...
$$

 *****  OTHER OBSERVATIONS SOUTHEAST NORTH DAKOTA *****

CITY           SKY/WX    TMP DP  RH WIND       PRES   REMARKS
COOPERSTOWN    NOT AVBL
VALLEY CITY    CLOUDY    25  25 100 SW8G17    29.74F FOG     WCI  16
OAKES            N/A     25  25 100 S10       29.78F FOG     WCI  15
GWINNER        CLOUDY    28  28 100 CALM      29.79F
BUFFALO        NOT AVBL
WYNDMERE         N/A     27  25  93 SW9         N/A  WCI  17
 ***** THE ABOVE OBSERVATIONS ARE NON NWS ARE NOT QUALITY
       CONTROLLED AND MAY MIS-REPORT RAIN FOR SNOW...
$$

  *****  WEATHER ACROSS NORTHERN MINNESOTA  *****

CITY           SKY/WX    TMP DP  RH WIND       PRES   REMARKS
FLAG ISLAND    CLOUDY    30  28  93 SW3       29.70F
WARROAD        CLOUDY    30  27  86 CALM      29.72F
ROSEAU         CLOUDY    30  27  86 W6        29.72F WCI  24
HALLOCK        CLOUDY    28  25  86 S8        29.72F WCI  20
THF RVR FALLS  CLOUDY    28  27  93 S6        29.74F WCI  22
HALSTAD          N/A     28  25  89 W10         N/A  WCI  18
FOSSTON        LGT SNOW  28  27  93 W5        29.74F WCI  23
BAUDETTE       CLOUDY    31  29  92 CALM      29.70F
WASKISH        MIX PCPN  32  32 100 CALM      29.71F VSB 1/4
CROOKSTON      CLOUDY    28  27  93 SW9       29.76F WCI  20
$$
  *****  WEATHER ACROSS CENTRAL AND WEST MINNESOTA  *****

CITY           SKY/WX    TMP DP  RH WIND       PRES   REMARKS
BEMIDJI        CLOUDY    30  30  99 W5        29.72F FOG
PARK RAPIDS    CLOUDY    32  29  88 W6        29.71F
WADENA         CLOUDY    28  28 100 W3        29.74  FOG
DETROIT LAKES  MIX PCPN  30  30 100 W5        29.75F
MOORHEAD       CLOUDY    28  28 100 W9        29.78F WCI  20
FERGUS FALLS   CLOUDY    28  28 100 NW6       29.80F FOG     WCI  22
ELBOW LAKE     CLOUDY    28  28  99 W7        29.77F FOG     WCI  21
MORRIS MN      CLOUDY    30  28  93 NW8       29.77F WCI  23
STAPLES        CLOUDY    30  30 100 W6        29.74F WCI  24
WHEATON        CLOUDY    25  25 100 W7        29.82F WCI  17
$$
  *****  WEATHER ELSEWHERE ACROSS MINNESOTA  *****

CITY           SKY/WX    TMP DP  RH WIND       PRES   REMARKS
DULUTH         CLOUDY    33  27  78 N8        29.69F
INTRNTL FALLS  CLOUDY    33  31  92 CALM      29.69F FOG
ELY            CLOUDY    30  28  93 CALM      29.68F
CLOQUET        CLOUDY    34  30  86 NE6       29.70F
BRAINERD       CLOUDY    33  31  92 W6        29.73F
HIBBING        CLOUDY    33  29  85 CALM      29.70F
ALEXANDRIA     CLOUDY    30  29  96 NW9       29.75F FOG     WCI  22
SAINT CLOUD    CLOUDY    35  30  82 NW7       29.74F
MINNEAPOLIS    CLOUDY    35  31  85 NW8       29.74F
$$

  *****  WEATHER ACROSS SOUTH DAKOTA  *****

CITY           SKY/WX    TMP DP  RH WIND       PRES   REMARKS
SIOUX FALLS    LGT SNOW  26  24  92 W8        29.84F FOG     WCI  18
BROOKINGS      NOT AVBL
WATERTOWN      FOG       24  22  91 W7        29.78F VSB 1   WCI  16
HURON          CLOUDY    25  23  92 W8        29.83F FOG     WCI  16
SISSETON         N/A     25  24  96 W6        29.79  WCI  18
ABERDEEN       CLOUDY    27  23  85 SW10      29.81F FOG     WCI  17
MITCHELL       CLOUDY    26  25  96 W6        29.86F FOG     WCI  19
PIERRE         SUNNY     17  14  88 SE7       29.78F WCI   8
MOBRIDGE       PTSUNNY   22  18  85 SE12      29.70F WCI  10
RAPID CITY     CLOUDY    24  18  77 CALM      29.68F
$$

  *****  SOME WEATHER IN NEARBY STATES *****

CITY           SKY/WX    TMP DP  RH WIND       PRES   REMARKS
GLASGOW MT     CLOUDY    33  29  85 W7        29.57R
GREAT FALLS MT LGT SNOW  33  32  96 E10       29.61R VSB 3/4 WCI  25
CHEYENNE WY    SUNNY     35  16  45 W29G37    29.76F WCI  22
SCOTTSBLUFF NE SUNNY     23  16  74 CALM      29.78F
OMAHA NE       CLOUDY    32  30  92 NW14      29.88F WCI  22
DES MOINES IA  CLOUDY    35  32  88 NW14      29.77F
DAVENPORT IA   CLOUDY    35  32  88 NW9       29.64F
CHICAGO IL     CLOUDY    39  34  82 NW8       29.56F
EAU CLAIRE WI  CLOUDY    35  30  82 N8        29.68F
LA CROSSE WI   CLOUDY    37  32  82 N10       29.65F
$$

  *****  SOME NATIONAL WEATHER *****

CITY           SKY/WX    TMP DP  RH WIND       PRES   REMARKS
LA GUARDIA NY  LGT RAIN  44  43  96 NE12      29.86F VSB 1
RALEIGH NC     LGT RAIN  58  55  90 S6        29.77F FOG
ATLANTA GA     FOG       54  54 100 SE6       29.69S VSB 1/4
NEW ORLEANS LA MOSUNNY   54  40  59 NW14      29.94R
OKLAHOMA CITY  CLOUDY    39  26  59 NW13      30.03R
ALBUQUERQUE NM MOSUNNY   31  11  43 CALM      30.21R
SALT LAKE CITY MOSUNNY   33  20  58 S13       30.06F WCI  24
LOS ANGELES CA PTSUNNY   65  36  34 E7        30.07S
BOISE ID       CLOUDY    32  27  81 CALM      29.81F
SEATTLE WA     CLOUDY    40  37  89 S3        29.92R
$$

*** WEATHER ACROSS MANITOBA...SASKATCHEWAN AND ONTARIO ***
                ***ONTARIO***

CITY           SKY/WX    TMP DP  RH WIND       PRES   REMARKS
GERALDTON      FLURRIES  27  25  93 NE7       29.69F WCI  19
THUNDER BAY    FLURRIES  34  30  86 NE3       29.71F
SIOUX LOOKOUT  FLURRIES  30  28  93 CALM      29.69F
TORONTO        DRIZZLE   46  46 100 E7        29.56F FOG
BIG TROUT LK   FLURRIES  21  19  93 SE3       29.78F
PICKLE LAKE    FLURRIES  25  23  93 E6        29.70F WCI  18
DRYDEN         CLOUDY    30  30 100 S3        29.69F FOG
KENORA         NOT AVBL
$$
                *** MANITOBA***

CITY           SKY/WX    TMP DP  RH WIND       PRES   REMARKS
BRANDON        CLOUDY    23  23 100 E7        29.55F FOG     WCI  15
DAUPHIN        NOT AVBL
ISLAND LAKE    LGT SNOW  23  23 100 SE6       29.70F WCI  16
PILOT MOUND    NOT AVBL
THE PAS        CLOUDY    21  21 100 E8        29.54F FOG     WCI  12
THOMPSON       FLURRIES  19  18  93 SE3       29.67F
WINNIPEG       CLOUDY    25  23  93 S10       29.70F WCI  15
LYNN LAKE      LGT SNOW  19  19 100 S6        29.57F WCI  11
GILLAM         FLURRIES  19  18  93 SE3       29.74F
$$
                ***SASKATCHEWAN***

CITY           SKY/WX    TMP DP  RH WIND       PRES   REMARKS
ESTEVAN        FLURRIES  30  25  80 SW13G21   29.50S WCI  20
KINDERSLEY     NOT AVBL
LLOYDMINSTER   NOT AVBL
PRINCE ALBERT  CLOUDY    25  23  93 NW2       29.46F FOG
REGINA         PTSUNNY   28  25  86 NW15      29.49S WCI  17
YORKTON        NOT AVBL
N. BATTLEFORD  CLOUDY    21  19  93 NW7       29.52F WCI  13


USA.gov is the U.S. government's official web portal to all federal, state and local government web resources and services.